Location: Forst
(46.9333°N, 15.4333°E)
Time: 14:40:26
(UTC+00:00)

STPSAT 2 (USA 217) - Pass Details

Date: 01 December 2020
Orbit: 621 x 646 km, 72.0° (Epoch: 12 January)

Event Time Altitude Azimuth Distance (km) Brightness Sun altitude
Rises 17:11:39 0° 200° (SSW) 2,905 8.4 -19.8°
Reaches altitude 10° 17:13:54 10° 199° (SSW) 2,006 7.5 -20.2°
Maximum altitude 17:18:24 80° 115° (ESE) 651 4.5 -21.0°
Enters shadow 17:19:41 47° 35° (NE) 851 4.9 -21.2°
